Danbury, CT

6:31 PM EDT on September 24, 2017 (GMT -0400)
Danbury Municipal

Weather History for KDXR - September, 2013

Change the Weather History Date:

Monday, September 2, 2013

  Actual Average Record
Temperature  
Mean Temperature 74 °F -  
Max Temperature 80 °F 79 °F 100 °F (1953)
Min Temperature 68 °F 56 °F 40 °F (1949)
Cooling Degree Days 8    
Growing Degree Days 24 (Base 50)    
Moisture  
Dew Point 68 °F    
Average Humidity 86    
Maximum Humidity 94    
Minimum Humidity 73    
Precipitation  
Precipitation 1.06 in - - ()
Sea Level Pressure  
Sea Level Pressure 29.79 in    
Wind  
Wind Speed 3 mph (SE)    
Max Wind Speed 14 mph    
Max Gust Speed 25 mph    
Visibility 4 miles    
Events Fog , Rain , Thunderstorm    
Averages and records for this station are not official NWS values.
T = Trace of Precipitation, MM = Missing Value Source: NWS Daily Summary

Daily Weather History Graph

Daily Weather History Graph

Search for Another Location

Airport or City:

Trip Planner

Search our weather history database for the weather conditions in past years. The results will help you decide how hot, cold, wet, or windy it might be!

Date:

Astronomy

Sep. 02, 2013 Rise Set
Actual Time 6:21 AM EDT 7:24 PM EDT
Civil Twilight 5:53 AM EDT 7:53 PM EDT
Nautical Twilight 5:19 AM EDT 8:26 PM EDT
Astronomical Twilight 4:43 AM EDT 9:01 PM EDT
Moon 3:34 AM EDT (9/2) 5:37 PM EDT (9/2)
Length of Visible Light 13h 59m
Length of Day
13h 03m
Waning Crescent, 8% of the Moon is Illuminated
Sep 2
Waning Crescent
Sep 5
New
Sep 12
First Quarter
Sep 19
Full
Sep 26
Last Quarter

Hourly Weather History & Observations

Time (EDT) Temp. Dew Point Humidity Pressure Visibility Wind Dir Wind Speed Gust Speed Precip Events Conditions
12:53 AM 73.9 °F 69.1 °F 85% 29.83 in 7.0 mi Calm Calm - N/A   Overcast
1:53 AM 73.9 °F 70.0 °F 87% 29.83 in 6.0 mi Calm Calm - N/A   Overcast
2:32 AM 73.4 °F 69.8 °F 88% 29.83 in 6.0 mi SSE 5.8 mph - N/A   Overcast
2:53 AM 73.9 °F 70.0 °F 87% 29.82 in 5.0 mi SE 4.6 mph - N/A   Overcast
3:16 AM 73.4 °F 69.8 °F 88% 29.81 in 5.0 mi SE 4.6 mph - N/A   Overcast
3:38 AM 73.4 °F 69.8 °F 88% 29.81 in 5.0 mi Calm Calm - N/A Thunderstorm Overcast
3:53 AM 73.9 °F 70.0 °F 87% 29.80 in 4.0 mi SE 3.5 mph - N/A   Overcast
4:35 AM 73.4 °F 69.8 °F 88% 29.81 in 4.0 mi Calm Calm - 0.00 in Rain , Thunderstorm Light Rain
4:50 AM 73.4 °F 71.6 °F 94% 29.81 in 2.5 mi SE 3.5 mph - 0.00 in   Overcast
4:53 AM 73.0 °F 71.1 °F 93% 29.80 in 2.0 mi SE 3.5 mph - 0.00 in   Overcast
5:11 AM 73.4 °F 71.6 °F 94% 29.81 in 3.0 mi Calm Calm - N/A   Overcast
5:21 AM 73.4 °F 71.6 °F 94% 29.81 in 4.0 mi Calm Calm - N/A   Overcast
5:53 AM 73.0 °F 71.1 °F 93% 29.80 in 4.0 mi SE 3.5 mph - N/A   Overcast
6:13 AM 73.4 °F 69.8 °F 88% 29.81 in 6.0 mi ESE 4.6 mph - N/A   Overcast
6:50 AM 73.4 °F 69.8 °F 88% 29.82 in 6.0 mi Calm Calm - N/A   Overcast
6:53 AM 73.0 °F 70.0 °F 90% 29.81 in 6.0 mi Calm Calm - N/A   Overcast
7:53 AM 73.0 °F 70.0 °F 90% 29.81 in 5.0 mi SE 6.9 mph - N/A   Overcast
8:14 AM 73.4 °F 69.8 °F 88% 29.82 in 2.5 mi SSE 4.6 mph - N/A   Overcast
8:20 AM 73.4 °F 69.8 °F 88% 29.82 in 1.8 mi Calm Calm - N/A   Overcast
8:53 AM 73.9 °F 70.0 °F 87% 29.81 in 3.0 mi SSE 5.8 mph - N/A   Overcast
9:11 AM 75.2 °F 71.6 °F 89% 29.82 in 4.0 mi South 3.5 mph - N/A   Overcast
9:46 AM 75.2 °F 71.6 °F 89% 29.83 in 6.0 mi South 4.6 mph - N/A   Haze
9:53 AM 77.0 °F 71.1 °F 82% 29.81 in 6.0 mi SSW 3.5 mph - N/A   Haze
10:19 AM 73.4 °F 66.2 °F 78% 29.83 in 5.0 mi Variable 5.8 mph 18.4 mph 0.01 in Rain Light Rain
10:22 AM 73.4 °F 66.2 °F 78% 29.83 in 2.5 mi Variable 3.5 mph 18.4 mph 0.03 in Rain Rain
10:25 AM 71.6 °F 66.2 °F 83% 29.83 in 1.8 mi Variable 4.6 mph - 0.04 in Rain Heavy Rain
10:35 AM 71.6 °F 64.4 °F 78% 29.83 in 0.8 mi Calm Calm - 0.10 in Rain Heavy Rain
10:44 AM 69.8 °F 66.2 °F 88% 29.82 in 1.2 mi Calm Calm - 0.17 in Rain Light Rain
10:47 AM 71.6 °F 66.2 °F 83% 29.83 in 3.0 mi Calm Calm - 0.18 in Rain Light Rain
10:53 AM 72.0 °F 66.0 °F 81% 29.81 in 9.0 mi East 3.5 mph - 0.20 in Rain Light Rain
11:53 AM 78.1 °F 69.1 °F 74% 29.81 in 10.0 mi Calm Calm - 0.01 in   Clear
12:53 PM 79.0 °F 70.0 °F 74% 29.78 in 10.0 mi Calm Calm - N/A   Partly Cloudy
1:05 PM 78.8 °F 69.8 °F 74% 29.79 in 10.0 mi Calm Calm - N/A   Mostly Cloudy
1:53 PM 79.0 °F 70.0 °F 74% 29.77 in 10.0 mi ESE 5.8 mph - 0.00 in   Mostly Cloudy
2:31 PM 78.8 °F 69.8 °F 74% 29.78 in 10.0 mi ESE 9.2 mph - N/A   Mostly Cloudy
2:49 PM 73.4 °F 64.4 °F 73% 29.78 in 2.5 mi SE 13.8 mph 19.6 mph 0.00 in Rain Light Rain
2:53 PM 72.0 °F 64.0 °F 76% 29.78 in 2.5 mi SE 13.8 mph 19.6 mph 0.00 in Rain Light Rain
3:04 PM 71.6 °F 62.6 °F 73% 29.79 in 10.0 mi ESE 13.8 mph 25.3 mph 0.00 in Rain Light Rain
3:27 PM 73.4 °F 64.4 °F 73% 29.78 in 1.8 mi Variable 6.9 mph - 0.01 in Rain Rain
3:33 PM 71.6 °F 66.2 °F 83% 29.78 in 0.8 mi SSE 6.9 mph - 0.04 in Rain Heavy Rain
3:38 PM 71.6 °F 66.2 °F 83% 29.78 in 1.2 mi SSE 4.6 mph - 0.07 in Rain Heavy Rain
3:44 PM 71.6 °F 66.2 °F 83% 29.78 in 4.0 mi ESE 4.6 mph - 0.10 in Rain Light Rain
3:53 PM 72.0 °F 66.0 °F 81% 29.77 in 10.0 mi Calm Calm - 0.15 in   Overcast
4:16 PM 71.6 °F 64.4 °F 78% 29.78 in 1.5 mi Calm Calm - 0.08 in Rain Light Rain
4:18 PM 71.6 °F 64.4 °F 78% 29.78 in 0.8 mi Variable 3.5 mph - 0.08 in Rain Heavy Rain
4:29 PM 69.8 °F 66.2 °F 88% 29.77 in 0.2 mi South 4.6 mph - 0.14 in Fog , Rain Heavy Rain
4:35 PM 69.8 °F 66.2 °F 88% 29.77 in 1.0 mi SE 3.5 mph - 0.19 in Rain Heavy Rain
4:42 PM 69.8 °F 66.2 °F 88% 29.77 in 2.0 mi East 3.5 mph - 0.26 in Rain Rain
4:51 PM 69.8 °F 66.2 °F 88% 29.77 in 6.0 mi South 6.9 mph - 0.34 in Rain Light Rain
4:53 PM 70.0 °F 66.9 °F 90% 29.76 in 4.0 mi South 8.1 mph - 0.35 in Rain Light Rain
4:57 PM 69.8 °F 66.2 °F 88% 29.77 in 1.8 mi Variable 6.9 mph - 0.04 in Rain Heavy Rain
5:08 PM 69.8 °F 66.2 °F 88% 29.76 in 3.0 mi SE 5.8 mph - 0.12 in Rain Light Rain
5:53 PM 70.0 °F 66.9 °F 90% 29.74 in 10.0 mi SE 3.5 mph - 0.35 in   Overcast
6:53 PM 72.0 °F 68.0 °F 87% 29.73 in 7.0 mi Calm Calm - 0.00 in   Overcast
7:53 PM 71.1 °F 68.0 °F 90% 29.72 in 6.0 mi WSW 6.9 mph - 0.00 in   Clear
8:51 PM 69.8 °F 66.2 °F 88% 29.74 in 1.2 mi Calm Calm - N/A   Partly Cloudy
8:53 PM 70.0 °F 66.9 °F 90% 29.73 in 0.8 mi Calm Calm - N/A   Mist
9:53 PM 68.0 °F 66.0 °F 93% 29.75 in 0.2 mi Calm Calm - N/A Fog Fog
10:53 PM 68.0 °F 66.0 °F 93% 29.76 in 0.2 mi Calm Calm - N/A Fog Fog
11:02 PM 68.0 °F 66.2 °F 94% 29.77 in 1.0 mi Calm Calm - N/A   Overcast
11:05 PM 69.8 °F 66.2 °F 88% 29.78 in 2.0 mi Calm Calm - N/A   Overcast
11:16 PM 69.8 °F 68.0 °F 94% 29.78 in 3.0 mi NNE 5.8 mph - N/A   Overcast
11:33 PM 69.8 °F 68.0 °F 94% 29.80 in 4.0 mi NE 4.6 mph - N/A   Overcast
11:44 PM 69.8 °F 68.0 °F 94% 29.80 in 4.0 mi East 3.5 mph - N/A   Overcast
11:53 PM 70.0 °F 68.0 °F 93% 29.79 in 4.0 mi East 3.5 mph - N/A   Overcast